CW2303 Weather Reports


Display with metric or nautical units.
time (UTC)temp
F
wind
direction
speed
MPH
gust
MPH
rain 1hr
in
rain 24hr
in
rain mn
in
humidity
%
barometer
mb
20260510032042 62 0 0.0 0.0 0.00 0.01 0.01 66 1012.9
20260510031559 63 0 0.0 0.0 0.00 0.01 0.01 65 1012.8
20260510031044 64 0 0.0 0.0 0.00 0.01 0.01 63 1012.8
20260510030544 64 0 0.0 0.0 0.00 0.01 0.01 59 1012.9
20260510030058 64 0 0.0 0.0 0.00 0.01 0.01 59 1012.8
20260510025545 64 0 0.0 0.0 0.00 0.01 0.01 59 1012.7
20260510025140 64 0 0.0 1.0 0.00 0.01 0.01 59 1012.5
20260510024600 64 0 0.0 1.0 0.00 0.01 0.01 61 1012.5
20260510024045 65 0 0.0 0.0 0.00 0.01 0.01 60 1012.4
20260510023545 65 0 0.0 0.0 0.00 0.01 0.01 59 1012.2
20260510023057 66 0 0.0 0.0 0.00 0.01 0.01 58 1012.0
20260510022545 66 0 0.0 0.0 0.00 0.01 0.01 57 1011.8
20260510022045 66 0 0.0 0.0 0.00 0.01 0.01 57 1012.0
20260510021646 66 0 0.0 0.0 0.00 0.01 0.01 56 1011.8
20260510021044 66 0 0.0 0.0 0.00 0.01 0.01 55 1011.7
20260510020543 66 0 0.0 0.0 0.00 0.01 0.01 54 1011.6
20260510020059 67 0 0.0 0.0 0.00 0.01 0.01 54 1011.5
20260510015546 67 0 0.0 0.0 0.00 0.01 0.01 52 1011.4
20260510015043 67 0 0.0 0.0 0.00 0.01 0.01 52 1011.3
20260510014558 67 0 0.0 0.0 0.00 0.01 0.01 53 1011.3
20260510014044 67 0 0.0 0.0 0.00 0.01 0.01 52 1011.1
20260510013544 68 0 0.0 0.0 0.00 0.01 0.01 52 1011.0
20260510013101 68 0 0.0 0.0 0.00 0.01 0.01 53 1011.0
20260510012544 69 0 0.0 0.0 0.00 0.01 0.01 54 1010.9
20260510012045 69 0 0.0 0.0 0.00 0.01 0.01 52 1010.9
20260510011555 70 0 0.0 0.0 0.00 0.01 0.01 50 1010.7
20260510011045 70 0 0.0 0.0 0.00 0.01 0.01 49 1010.7
20260510010544 70 0 0.0 0.0 0.00 0.01 0.01 51 1010.7
20260510010100 71 0 0.0 0.0 0.00 0.01 0.01 50 1010.7
20260510005544 72 0 0.0 0.0 0.00 0.01 0.01 45 1010.6
20260510005045 72 0 0.0 0.0 0.00 0.01 0.01 45 1010.5
20260510004556 72 0 0.0 0.0 0.00 0.01 0.01 46 1010.4
20260510004044 73 0 0.0 0.0 0.00 0.01 0.01 46 1010.6
20260510003546 73 0 0.0 0.0 0.00 0.01 0.01 47 1010.4
20260510003054 73 0 0.0 0.0 0.00 0.01 0.01 44 1010.3
20260510002544 73 0 0.0 0.0 0.00 0.01 0.01 45 1010.4
20260510002044 73 0 0.0 0.0 0.00 0.01 0.01 47 1010.4
20260510001551 74 0 0.0 0.0 0.00 0.01 0.01 45 1010.4
20260510001044 74 0 0.0 0.0 0.00 0.01 0.01 46 1010.3
20260510000544 75 0 0.0 0.0 0.00 0.01 0.01 42 1010.5
20260510000052 75 0 0.0 0.0 0.00 0.01 0.01 42 1010.4
20260509235543 76 0 0.0 1.0 0.00 0.01 0.01 43 1010.3
20260509235044 77 0 0.0 1.0 0.00 0.01 0.01 41 1010.4
20260509234551 78 0 0.0 0.0 0.00 0.01 0.01 33 1010.4
20260509234044 78 0 0.0 1.0 0.00 0.01 0.01 33 1010.4
20260509233544 79 0 0.0 1.0 0.00 0.01 0.01 32 1010.4
20260509233054 79 0 0.0 1.0 0.00 0.01 0.01 34 1010.4
20260509232544 79 0 0.0 1.0 0.00 0.01 0.01 34 1010.4
20260509232044 79 236 0.0 3.0 0.00 0.01 0.01 34 1010.3
20260509231553 80 0 0.0 3.0 0.00 0.01 0.01 33 1010.4
20260509231043 80 246 0.0 2.0 0.00 0.01 0.01 34 1010.4
20260509230543 80 264 0.0 3.0 0.00 0.01 0.01 32 1010.3
20260509230059 79 152 1.0 8.0 0.00 0.01 0.01 31 1010.3
20260509225544 79 284 3.0 8.0 0.00 0.01 0.01 31 1010.4
20260509225043 79 250 2.0 7.0 0.00 0.01 0.01 34 1010.3
20260509224553 80 242 2.0 7.0 0.00 0.01 0.01 32 1010.3
20260509224043 80 276 2.0 4.0 0.00 0.01 0.01 33 1010.3
20260509223543 80 244 1.0 4.0 0.00 0.01 0.01 33 1010.4
20260509223057 80 236 2.0 5.0 0.00 0.01 0.01 32 1010.4
20260509222545 80 260 1.0 7.0 0.00 0.01 0.01 33 1010.4
20260509222043 80 240 3.0 8.0 0.00 0.01 0.01 36 1010.4
20260509221556 80 263 3.0 8.0 0.00 0.01 0.01 33 1010.3
20260509221042 80 274 2.0 8.0 0.00 0.01 0.01 32 1010.3
20260509220543 80 0 2.0 6.0 0.00 0.01 0.01 31 1010.3
20260509220054 80 0 0.0 8.0 0.00 0.01 0.01 33 1010.3
20260509215543 80 297 2.0 8.0 0.00 0.01 0.01 35 1010.2
20260509215043 80 337 2.0 6.0 0.00 0.01 0.01 34 1010.4
20260509214556 79 268 3.0 9.0 0.00 0.01 0.01 31 1010.3
20260509214043 79 263 5.0 12.0 0.00 0.01 0.01 31 1010.3
20260509213543 79 294 5.0 12.0 0.00 0.01 0.01 34 1010.2
20260509213108 79 267 2.0 11.0 0.00 0.01 0.01 34 1010.3
20260509212543 79 350 2.0 5.0 0.00 0.01 0.01 33 1010.3
20260509212043 80 336 2.0 5.0 0.00 0.01 0.01 34 1010.3
20260509211602 80 286 1.0 7.0 0.00 0.01 0.01 31 1010.4
20260509211043 79 304 3.0 10.0 0.00 0.01 0.01 32 1010.4
20260509210544 79 266 3.0 10.0 0.00 0.01 0.01 31 1010.6
20260509210053 80 280 3.0 10.0 0.00 0.01 0.01 32 1010.6
20260509205547 79 267 2.0 10.0 0.00 0.01 0.01 36 1010.6
20260509205044 79 312 2.0 10.0 0.00 0.01 0.01 31 1010.6
20260509204555 80 258 5.0 9.0 0.00 0.01 0.01 32 1010.6
20260509204044 80 302 0.0 6.0 0.00 0.01 0.01 31 1010.6
20260509203543 79 0 1.0 9.0 0.00 0.01 0.01 31 1010.7
20260509203054 79 311 3.0 9.0 0.00 0.01 0.01 32 1010.7
20260509202543 79 297 2.0 11.0 0.00 0.01 0.01 35 1010.9
20260509202043 79 296 4.0 12.0 0.00 0.01 0.01 31 1010.9
20260509201558 79 47 5.0 12.0 0.00 0.01 0.01 31 1011.0
20260509201043 79 295 5.0 12.0 0.00 0.01 0.01 32 1011.0
20260509200544 79 265 3.0 10.0 0.00 0.01 0.01 37 1011.1
20260509200055 79 255 2.0 9.0 0.00 0.01 0.01 35 1011.2
20260509195543 79 271 1.0 10.0 0.00 0.01 0.01 33 1011.3
20260509195045 78 283 3.0 14.0 0.00 0.01 0.01 32 1011.3
20260509194559 78 294 4.0 14.0 0.00 0.01 0.01 33 1011.3
20260509194043 78 268 8.0 14.0 0.00 0.01 0.01 32 1011.4
20260509193544 78 273 6.0 13.0 0.00 0.01 0.01 32 1011.3
20260509193056 78 269 5.0 11.0 0.00 0.01 0.01 34 1011.3
20260509192543 78 261 3.0 12.0 0.00 0.01 0.01 39 1011.2
20260509192043 78 284 6.0 12.0 0.00 0.01 0.01 37 1011.3
20260509191607 78 276 5.0 11.0 0.00 0.01 0.01 38 1011.3
20260509191042 78 254 7.0 11.0 0.00 0.01 0.01 37 1011.3
20260509190545 78 276 3.0 12.0 0.00 0.01 0.01 36 1011.4
20260509190056 78 281 3.0 12.0 0.00 0.01 0.01 38 1011.3
20260509185548 78 288 6.0 13.0 0.00 0.01 0.01 34 1011.5
20260509185048 78 279 6.0 13.0 0.00 0.01 0.01 35 1011.5
20260509184609 78 271 4.0 14.0 0.00 0.01 0.01 30 1011.4
20260509184048 78 308 1.0 14.0 0.00 0.01 0.01 35 1011.3
20260509183545 78 264 2.0 11.0 0.00 0.01 0.01 37 1011.3
20260509183101 78 303 3.0 9.0 0.00 0.01 0.01 32 1011.3
20260509182547 78 269 4.0 8.0 0.00 0.01 0.01 38 1011.3
20260509182048 77 287 3.0 8.0 0.00 0.01 0.01 36 1011.1
20260509181605 77 330 2.0 10.0 0.00 0.01 0.01 39 1011.4
20260509181047 77 0 5.0 10.0 0.00 0.01 0.01 33 1011.3
20260509180543 77 308 2.0 15.0 0.00 0.01 0.01 41 1011.4
20260509180112 77 298 4.0 15.0 0.00 0.01 0.01 36 1011.5
20260509175551 77 273 7.0 13.0 0.00 0.01 0.01 37 1011.3
20260509175046 77 279 4.0 12.0 0.00 0.01 0.01 38 1011.5
20260509174555 77 317 5.0 12.0 0.00 0.01 0.01 40 1011.5
20260509174045 77 290 3.0 10.0 0.00 0.01 0.01 38 1011.6
20260509173542 77 294 4.0 10.0 0.00 0.01 0.01 39 1011.6
20260509173106 77 279 4.0 10.0 0.00 0.01 0.01 39 1011.7
20260509172544 76 282 6.0 10.0 0.00 0.01 0.01 43 1011.8
20260509172044 76 286 5.0 11.0 0.00 0.01 0.01 42 1011.8
20260509171557 76 312 3.0 17.0 0.00 0.01 0.01 38 1011.8
20260509171046 76 273 7.0 17.0 0.00 0.01 0.01 41 1011.9
20260509170543 76 288 3.0 10.0 0.00 0.01 0.01 45 1011.7
20260509170057 76 329 5.0 11.0 0.00 0.01 0.01 43 1011.8
20260509165543 76 309 5.0 12.0 0.00 0.01 0.01 43 1011.8
20260509165044 75 281 6.0 14.0 0.00 0.01 0.01 43 1011.8
20260509164555 75 276 4.0 16.0 0.00 0.01 0.01 44 1011.7
20260509164043 75 286 6.0 16.0 0.00 0.01 0.01 44 1011.7
20260509163546 75 257 10.0 16.0 0.00 0.01 0.01 42 1011.8
20260509163055 74 269 6.0 12.0 0.00 0.01 0.01 44 1011.8
20260509162544 74 283 6.0 12.0 0.00 0.01 0.01 47 1011.8
20260509162042 74 287 5.0 11.0 0.00 0.01 0.01 49 1011.8
20260509161601 74 259 3.0 11.0 0.00 0.01 0.01 49 1011.8
20260509161043 73 308 4.0 11.0 0.00 0.01 0.01 48 1011.8
20260509160544 73 260 4.0 11.0 0.00 0.01 0.01 49 1011.8
20260509160056 73 248 3.0 8.0 0.00 0.01 0.01 55 1011.7
20260509155543 73 285 2.0 10.0 0.00 0.01 0.01 54 1011.7
20260509155043 72 280 3.0 10.0 0.00 0.01 0.01 56 1011.8
20260509154559 72 269 3.0 6.0 0.00 0.01 0.01 57 1011.7
20260509154044 71 244 2.0 7.0 0.00 0.01 0.01 58 1011.7
20260509153543 71 305 3.0 8.0 0.00 0.01 0.01 59 1011.7
20260509153103 70 256 4.0 9.0 0.00 0.01 0.01 60 1011.7
20260509152543 70 302 5.0 9.0 0.00 0.01 0.01 60 1011.8
20260509152045 70 271 3.0 9.0 0.00 0.01 0.01 59 1011.7
20260509151554 70 289 4.0 9.0 0.00 0.01 0.01 61 1011.7
20260509151043 69 255 3.0 8.0 0.00 0.01 0.01 63 1011.7
20260509150544 69 268 2.0 8.0 0.00 0.01 0.01 65 1011.8
20260509150054 68 265 3.0 9.0 0.00 0.01 0.01 65 1011.7
20260509145543 68 265 3.0 9.0 0.00 0.01 0.01 68 1011.6
20260509145042 67 275 4.0 11.0 0.00 0.01 0.01 68 1011.6
20260509144553 67 260 6.0 11.0 0.00 0.01 0.01 67 1011.6
20260509144043 67 259 6.0 11.0 0.00 0.01 0.01 66 1011.5
20260509143544 66 286 4.0 9.0 0.00 0.01 0.01 71 1011.4
20260509143051 66 273 3.0 8.0 0.00 0.01 0.01 74 1011.4
20260509142545 65 262 4.0 8.0 0.00 0.01 0.01 75 1011.5
20260509142044 65 252 3.0 7.0 0.00 0.01 0.01 78 1011.5
20260509141555 65 266 5.0 7.0 0.00 0.01 0.01 79 1011.5
20260509141044 64 263 3.0 6.0 0.00 0.01 0.01 82 1011.4
20260509140547 64 252 1.0 4.0 0.00 0.01 0.01 85 1011.5
20260509140105 63 236 1.0 4.0 0.00 0.01 0.01 86 1011.4
20260509135543 63 257 1.0 6.0 0.00 0.01 0.01 88 1011.4
20260509135043 62 243 2.0 6.0 0.00 0.01 0.01 90 1011.4
20260509134552 61 265 2.0 6.0 0.00 0.01 0.01 91 1011.4
20260509134048 61 266 1.0 4.0 0.00 0.01 0.01 92 1011.4
20260509133543 60 255 0.0 2.0 0.00 0.01 0.01 94 1011.3
20260509133053 59 229 0.0 4.0 0.00 0.01 0.01 95 1011.3
20260509132545 59 256 1.0 4.0 0.00 0.01 0.01 95 1011.2
20260509132041 58 242 0.0 4.0 0.00 0.01 0.01 96 1011.1
20260509131552 57 274 1.0 3.0 0.00 0.01 0.01 96 1011.1
20260509131044 57 276 1.0 3.0 0.00 0.01 0.01 97 1011.1
20260509130542 57 261 1.0 3.0 0.00 0.01 0.01 97 1011.1
20260509130052 56 271 1.0 2.0 0.00 0.01 0.01 97 1011.1
20260509125546 56 263 1.0 2.0 0.00 0.01 0.01 97 1011.1
20260509125044 56 0 0.0 2.0 0.00 0.01 0.01 97 1011.1
20260509124556 56 0 0.0 3.0 0.00 0.01 0.01 97 1011.1
20260509124045 55 0 0.0 3.0 0.00 0.01 0.01 97 1011.1
20260509123547 55 254 2.0 3.0 0.00 0.01 0.01 97 1011.1
20260509123053 54 261 1.0 3.0 0.00 0.01 0.01 97 1011.1
20260509122545 54 273 1.0 2.0 0.00 0.01 0.01 97 1011.1
20260509122045 54 270 0.0 2.0 0.00 0.01 0.01 97 1011.1
20260509121553 53 0 0.0 0.0 0.00 0.01 0.01 97 1011.1
20260509121048 53 0 0.0 0.0 0.00 0.01 0.01 97 1011.1
20260509120542 52 0 0.0 0.0 0.00 0.01 0.01 97 1011.0
20260509120055 51 0 0.0 0.0 0.00 0.01 0.01 97 1011.0
20260509115544 50 0 0.0 0.0 0.00 0.01 0.01 97 1010.9
20260509115041 50 0 0.0 0.0 0.00 0.01 0.01 96 1010.9
20260509114553 50 0 0.0 0.0 0.00 0.01 0.01 96 1010.9
20260509114046 50 0 0.0 0.0 0.00 0.01 0.01 96 1010.8
20260509113546 50 0 0.0 0.0 0.00 0.01 0.01 96 1010.7
20260509113051 50 0 0.0 0.0 0.00 0.01 0.01 97 1010.7
20260509112545 49 0 0.0 0.0 0.00 0.01 0.01 96 1010.5
20260509112045 49 0 0.0 0.0 0.00 0.01 0.01 96 1010.4
20260509111554 49 0 0.0 0.0 0.00 0.01 0.01 96 1010.5
20260509111045 49 0 0.0 0.0 0.00 0.01 0.01 96 1010.4
20260509110545 50 0 0.0 0.0 0.00 0.01 0.01 96 1010.3
20260509110051 49 0 0.0 0.0 0.00 0.01 0.01 96 1010.4
20260509105545 49 0 0.0 0.0 0.00 0.01 0.01 96 1010.2
20260509105045 49 0 0.0 0.0 0.00 0.01 0.01 96 1010.1
20260509104554 49 0 0.0 0.0 0.00 0.01 0.01 96 1010.1
20260509104043 49 0 0.0 0.0 0.00 0.01 0.01 96 1010.2
20260509103544 49 0 0.0 0.0 0.01 0.01 0.01 96 1010.2
20260509103104 49 0 0.0 0.0 0.01 0.01 0.01 96 1010.2
20260509102544 49 0 0.0 0.0 0.01 0.01 0.01 95 1010.2
20260509102044 50 0 0.0 0.0 0.01 0.01 0.01 94 1010.1
20260509101559 51 0 0.0 0.0 0.01 0.01 0.01 96 1010.2
20260509101043 51 0 0.0 0.0 0.01 0.01 0.01 96 1010.0
20260509100543 51 0 0.0 0.0 0.01 0.01 0.01 96 1010.1
20260509100051 52 0 0.0 0.0 0.01 0.01 0.01 96 1010.1
20260509095543 52 0 0.0 0.0 0.01 0.01 0.01 96 1010.1
20260509095043 52 0 0.0 0.0 0.01 0.01 0.01 96 1010.1
20260509094559 52 0 0.0 0.0 0.01 0.01 0.01 96 1010.1
20260509094043 52 0 0.0 0.0 0.01 0.01 0.01 96 1010.2
20260509093543 52 0 0.0 0.0 0.00 0.00 0.00 96 1010.2
20260509093058 52 0 0.0 0.0 0.00 0.00 0.00 96 1010.2
20260509092546 52 0 0.0 0.0 0.00 0.00 0.00 96 1010.3
20260509092047 52 0 0.0 0.0 0.00 0.00 0.00 96 1010.2
20260509091555 52 0 0.0 0.0 0.00 0.00 0.00 96 1010.3
20260509091043 52 0 0.0 0.0 0.00 0.00 0.00 96 1010.3
20260509090544 52 0 0.0 0.0 0.00 0.00 0.00 96 1010.4
20260509090058 52 0 0.0 0.0 0.00 0.00 0.00 96 1010.3
20260509085546 51 0 0.0 0.0 0.00 0.00 0.00 96 1010.2
20260509085043 51 0 0.0 0.0 0.00 0.00 0.00 96 1010.2
20260509084600 52 0 0.0 0.0 0.00 0.00 0.00 95 1010.2
20260509084044 52 0 0.0 0.0 0.00 0.00 0.00 95 1010.2
20260509083545 52 0 0.0 0.0 0.00 0.00 0.00 96 1010.1
20260509083107 52 0 0.0 0.0 0.00 0.00 0.00 96 1010.2
20260509082544 52 0 0.0 0.0 0.00 0.00 0.00 96 1010.3
20260509082045 52 0 0.0 0.0 0.00 0.00 0.00 96 1010.3
20260509081553 52 0 0.0 0.0 0.00 0.00 0.00 96 1010.2
20260509081044 52 0 0.0 0.0 0.00 0.00 0.00 95 1010.2
20260509080543 52 0 0.0 0.0 0.00 0.00 0.00 95 1010.2
20260509080053 52 0 0.0 0.0 0.00 0.00 0.00 95 1010.1
20260509075543 51 0 0.0 0.0 0.00 0.00 0.00 95 1010.1
20260509075043 51 0 0.0 0.0 0.00 0.00 0.00 95 1010.2
20260509074610 52 0 0.0 0.0 0.00 0.00 0.00 95 1010.2
20260509074042 52 0 0.0 0.0 0.00 0.00 0.00 95 1010.1
20260509073546 52 0 0.0 0.0 0.00 0.00 0.00 95 1010.1
20260509073105 52 0 0.0 0.0 0.00 0.00 0.00 95 1010.0
20260509072546 52 0 0.0 0.0 0.00 0.00 0.00 95 1010.1
20260509072041 52 0 0.0 0.0 0.00 0.00 0.00 95 1010.0
20260509071556 52 0 0.0 0.0 0.00 0.00 0.00 95 1010.0
20260509071044 52 0 0.0 0.0 0.00 0.00 0.00 95 1009.9
20260509070546 52 0 0.0 0.0 0.00 0.00 0.00 95 1009.9
20260509070057 52 0 0.0 0.0 0.00 0.00 0.00 95 1010.1
20260509065544 53 0 0.0 0.0 0.00 0.00 0.00 95 1010.1
20260509065045 53 0 0.0 0.0 0.00 0.00 0.00 95 1010.1
20260509064550 52 0 0.0 0.0 0.00 0.00 0.00 95 1010.1
20260509064045 52 0 0.0 0.0 0.00 0.00 0.00 95 1010.1
20260509063546 52 0 0.0 0.0 0.00 0.00 0.00 94 1010.3
20260509063101 52 0 0.0 0.0 0.00 0.00 0.00 94 1010.3
20260509062545 52 0 0.0 0.0 0.00 0.00 0.00 94 1010.3
20260509062045 52 0 0.0 0.0 0.00 0.00 0.00 94 1010.3
20260509061556 52 0 0.0 0.0 0.00 0.00 0.00 94 1010.3
20260509061041 53 0 0.0 0.0 0.00 0.00 0.00 94 1010.3
20260509060547 53 0 0.0 0.0 0.00 0.00 0.00 94 1010.3
20260509060117 53 0 0.0 0.0 0.00 0.00 0.00 94 1010.4
20260509055545 53 0 0.0 0.0 0.00 0.00 0.00 94 1010.5
20260509055045 53 0 0.0 0.0 0.00 0.00 0.00 94 1010.5
20260509054553 53 0 0.0 0.0 0.00 0.00 0.00 93 1010.6
20260509054045 53 0 0.0 0.0 0.00 0.00 0.00 93 1010.6
20260509053545 54 0 0.0 0.0 0.00 0.00 0.00 93 1010.6
20260509053103 54 0 0.0 0.0 0.00 0.00 0.00 93 1010.4
20260509052544 54 0 0.0 0.0 0.00 0.00 0.00 94 1010.4
20260509052044 54 0 0.0 0.0 0.00 0.00 0.00 93 1010.3
20260509051601 54 0 0.0 0.0 0.00 0.00 0.00 93 1010.3
20260509051045 54 0 0.0 1.0 0.00 0.00 0.00 93 1010.3
20260509050542 54 0 0.0 1.0 0.00 0.00 0.00 92 1010.2
20260509045547 55 0 0.0 0.0 0.00 0.00 0.00 91 1010.1
20260509045045 55 0 0.0 0.0 0.00 0.00 0.00 91 1010.0
20260509044557 55 0 0.0 0.0 0.00 0.00 0.00 91 1010.0
20260509044046 55 0 0.0 0.0 0.00 0.00 0.00 91 1010.0
20260509043546 56 0 0.0 1.0 0.00 0.00 0.00 90 1010.1
20260509043057 56 0 0.0 1.0 0.00 0.00 0.00 89 1010.1
20260509042545 56 0 0.0 0.0 0.00 0.00 0.00 89 1010.2
20260509042045 57 0 0.0 0.0 0.00 0.00 0.00 88 1010.1
20260509041555 57 0 0.0 0.0 0.00 0.00 0.00 88 1010.2
20260509041046 57 0 0.0 1.0 0.00 0.00 0.00 88 1010.2
20260509040545 58 0 0.0 1.0 0.00 0.00 0.00 87 1010.2
20260509040108 58 0 0.0 1.0 0.00 0.00 0.00 86 1010.2
20260509035546 58 0 0.0 0.0 0.00 0.00 0.00 85 1010.2
20260509035046 59 0 0.0 2.0 0.00 0.00 0.00 85 1010.2
20260509034552 59 0 0.0 2.0 0.00 0.00 0.00 84 1010.2
20260509034042 59 263 0.0 1.0 0.00 0.00 0.00 84 1010.0
20260509033545 59 0 0.0 1.0 0.00 0.00 0.00 85 1010.0
20260509033126 59 0 0.0 7.0 0.00 0.00 0.00 85 1010.0
20260509032546 59 0 1.0 8.0 0.00 0.00 0.00 85 1010.0